| time (UTC) | temp F | wind direction | speed MPH | gust MPH | rain 1hr in | rain 24hr in | rain mn in | humidity % | barometer mb |
| 20260506221551 | 74 | 336 | 6.0 | 13.0 | 0.00 | 0.00 | 0.00 | 43 | 1016.8 |
| 20260506220052 | 74 | 317 | 7.0 | 14.0 | 0.00 | 0.00 | 0.00 | 42 | 1016.9 |
| 20260506214550 | 73 | 285 | 6.0 | 14.0 | 0.00 | 0.00 | 0.00 | 43 | 1017.0 |
| 20260506213054 | 74 | 323 | 6.0 | 13.0 | 0.00 | 0.00 | 0.00 | 45 | 1017.3 |
| 20260506211555 | 73 | 342 | 5.0 | 13.0 | 0.00 | 0.00 | 0.00 | 43 | 1017.3 |
| 20260506210054 | 73 | 360 | 4.0 | 11.0 | 0.00 | 0.00 | 0.00 | 42 | 1017.3 |
| 20260506204558 | 73 | 330 | 4.0 | 11.0 | 0.00 | 0.00 | 0.00 | 43 | 1017.4 |
| 20260506203052 | 73 | 350 | 7.0 | 11.0 | 0.00 | 0.00 | 0.00 | 43 | 1017.3 |
| 20260506201556 | 73 | 350 | 5.0 | 14.0 | 0.00 | 0.00 | 0.00 | 42 | 1017.3 |
| 20260506200109 | 73 | 57 | 6.0 | 12.0 | 0.00 | 0.00 | 0.00 | 41 | 1017.5 |
| 20260506194611 | 72 | 13 | 2.0 | 11.0 | 0.00 | 0.00 | 0.00 | 41 | 1017.5 |
| 20260506193052 | 72 | 330 | 4.0 | 14.0 | 0.00 | 0.00 | 0.00 | 46 | 1017.8 |
| 20260506191556 | 70 | 226 | 2.0 | 11.0 | 0.00 | 0.00 | 0.00 | 48 | 1018.1 |
| 20260506190052 | 70 | 339 | 3.0 | 8.0 | 0.00 | 0.00 | 0.00 | 44 | 1018.1 |
| 20260506184602 | 69 | 348 | 2.0 | 10.0 | 0.00 | 0.00 | 0.00 | 48 | 1018.3 |
| 20260506183103 | 69 | 29 | 1.0 | 10.0 | 0.00 | 0.00 | 0.00 | 49 | 1018.5 |
| 20260506181559 | 68 | 288 | 3.0 | 11.0 | 0.00 | 0.00 | 0.00 | 51 | 1018.6 |
| 20260506180053 | 68 | 245 | 2.0 | 7.0 | 0.00 | 0.00 | 0.00 | 54 | 1018.7 |
| 20260506174552 | 68 | 0 | 1.0 | 10.0 | 0.00 | 0.00 | 0.00 | 54 | 1018.8 |
| 20260506173055 | 67 | 235 | 1.0 | 9.0 | 0.00 | 0.00 | 0.00 | 59 | 1018.8 |
| 20260506171559 | 65 | 157 | 2.0 | 7.0 | 0.00 | 0.00 | 0.00 | 62 | 1018.9 |
| 20260506170057 | 62 | 200 | 3.0 | 8.0 | 0.00 | 0.00 | 0.00 | 64 | 1018.9 |
| 20260506164557 | 59 | 176 | 1.0 | 5.0 | 0.00 | 0.01 | 0.00 | 68 | 1018.9 |
| 20260506163055 | 57 | 157 | 1.0 | 4.0 | 0.00 | 0.01 | 0.00 | 70 | 1018.9 |
| 20260506161603 | 55 | 157 | 2.0 | 7.0 | 0.00 | 0.01 | 0.00 | 76 | 1019.0 |
| 20260506160055 | 52 | 209 | 1.0 | 3.0 | 0.00 | 0.01 | 0.00 | 84 | 1018.8 |
| 20260506154556 | 49 | 0 | 0.0 | 3.0 | 0.00 | 0.01 | 0.00 | 83 | 1018.9 |
| 20260506153058 | 48 | 83 | 0.0 | 3.0 | 0.00 | 0.01 | 0.00 | 89 | 1019.0 |
| 20260506151605 | 47 | 0 | 0.0 | 3.0 | 0.00 | 0.01 | 0.00 | 88 | 1019.3 |
| 20260506150106 | 46 | 0 | 1.0 | 6.0 | 0.00 | 0.01 | 0.00 | 90 | 1019.2 |
| 20260506144612 | 46 | 94 | 2.0 | 6.0 | 0.00 | 0.02 | 0.00 | 92 | 1019.1 |
| 20260506143057 | 45 | 88 | 1.0 | 3.0 | 0.00 | 0.02 | 0.00 | 92 | 1019.1 |
| 20260506141554 | 42 | 0 | 0.0 | 4.0 | 0.00 | 0.02 | 0.00 | 91 | 1019.1 |
| 20260506140111 | 39 | 92 | 1.0 | 3.0 | 0.00 | 0.02 | 0.00 | 90 | 1019.0 |
| 20260506134555 | 38 | 0 | 1.0 | 3.0 | 0.00 | 0.05 | 0.00 | 90 | 1018.8 |
| 20260506133059 | 38 | 0 | 0.0 | 3.0 | 0.00 | 0.05 | 0.00 | 90 | 1018.6 |
| 20260506131601 | 37 | 0 | 0.0 | 1.0 | 0.00 | 0.05 | 0.00 | 89 | 1018.5 |
| 20260506130138 | 37 | 0 | 0.0 | 2.0 | 0.00 | 0.05 | 0.00 | 89 | 1018.3 |
| 20260506124600 | 36 | 0 | 0.0 | 2.0 | 0.00 | 0.10 | 0.00 | 89 | 1018.2 |
| 20260506123052 | 36 | 0 | 0.0 | 3.0 | 0.00 | 0.10 | 0.00 | 89 | 1018.1 |
| 20260506121551 | 35 | 0 | 0.0 | 0.0 | 0.00 | 0.10 | 0.00 | 89 | 1018.1 |
| 20260506120053 | 34 | 0 | 0.0 | 2.0 | 0.00 | 0.10 | 0.00 | 89 | 1018.1 |
| 20260506114557 | 33 | 0 | 0.0 | 0.0 | 0.00 | 0.13 | 0.00 | 88 | 1018.0 |
| 20260506113103 | 32 | 155 | 0.0 | 2.0 | 0.00 | 0.13 | 0.00 | 87 | 1018.0 |
| 20260506111554 | 32 | 0 | 0.0 | 2.0 | 0.00 | 0.13 | 0.00 | 86 | 1018.0 |
| 20260506104610 | 33 | 0 | 0.0 | 0.0 | 0.00 | 0.20 | 0.00 | 86 | 1017.9 |
| 20260506103055 | 33 | 0 | 0.0 | 0.0 | 0.00 | 0.20 | 0.00 | 87 | 1017.9 |
| 20260506101606 | 33 | 0 | 0.0 | 0.0 | 0.00 | 0.20 | 0.00 | 85 | 1017.9 |
| 20260506100104 | 34 | 0 | 0.0 | 0.0 | 0.00 | 0.20 | 0.00 | 85 | 1017.6 |
| 20260506094605 | 35 | 0 | 0.0 | 0.0 | 0.00 | 0.21 | 0.00 | 85 | 1017.7 |
| 20260506093100 | 35 | 0 | 0.0 | 1.0 | 0.00 | 0.21 | 0.00 | 85 | 1017.6 |
| 20260506091556 | 36 | 0 | 0.0 | 0.0 | 0.00 | 0.21 | 0.00 | 85 | 1017.7 |
| 20260506090058 | 36 | 0 | 0.0 | 0.0 | 0.00 | 0.21 | 0.00 | 85 | 1017.9 |
| 20260506084556 | 37 | 156 | 0.0 | 3.0 | 0.00 | 0.21 | 0.00 | 85 | 1018.1 |
| 20260506083053 | 37 | 0 | 0.0 | 2.0 | 0.00 | 0.21 | 0.00 | 84 | 1018.1 |
| 20260506081549 | 37 | 0 | 0.0 | 0.0 | 0.00 | 0.21 | 0.00 | 83 | 1018.3 |
| 20260506073104 | 40 | 0 | 0.0 | 2.0 | 0.00 | 0.21 | 0.00 | 82 | 1018.6 |
| 20260506071611 | 42 | 0 | 0.0 | 0.0 | 0.00 | 0.21 | 0.00 | 81 | 1018.6 |
| 20260506061555 | 45 | 187 | 0.0 | 2.0 | 0.00 | 0.21 | 0.21 | 83 | 1018.4 |
| 20260506044601 | 48 | 261 | 2.0 | 10.0 | 0.00 | 0.21 | 0.21 | 79 | 1018.0 |
| 20260506043050 | 49 | 298 | 4.0 | 9.0 | 0.00 | 0.21 | 0.21 | 80 | 1018.0 |
| 20260506041605 | 49 | 323 | 3.0 | 8.0 | 0.00 | 0.21 | 0.21 | 79 | 1017.7 |
| 20260506040054 | 50 | 279 | 0.0 | 4.0 | 0.00 | 0.21 | 0.21 | 79 | 1017.5 |
| 20260506034556 | 49 | 269 | 2.0 | 6.0 | 0.00 | 0.21 | 0.21 | 79 | 1017.3 |
| 20260506033100 | 49 | 315 | 1.0 | 9.0 | 0.00 | 0.21 | 0.21 | 79 | 1017.1 |
| 20260506031557 | 49 | 311 | 2.0 | 8.0 | 0.00 | 0.21 | 0.21 | 77 | 1016.8 |
| 20260506030053 | 50 | 340 | 2.0 | 10.0 | 0.00 | 0.21 | 0.21 | 76 | 1016.6 |
| 20260506024553 | 51 | 303 | 2.0 | 9.0 | 0.00 | 0.21 | 0.21 | 73 | 1016.3 |
| 20260506023100 | 51 | 283 | 4.0 | 11.0 | 0.00 | 0.21 | 0.21 | 72 | 1016.2 |
| 20260506021556 | 52 | 294 | 2.0 | 11.0 | 0.00 | 0.21 | 0.21 | 70 | 1015.9 |
| 20260506020054 | 53 | 329 | 4.0 | 13.0 | 0.00 | 0.21 | 0.21 | 67 | 1015.8 |
| 20260506014558 | 54 | 337 | 5.0 | 14.0 | 0.00 | 0.21 | 0.21 | 67 | 1015.7 |
| 20260506013055 | 54 | 331 | 3.0 | 14.0 | 0.00 | 0.21 | 0.21 | 66 | 1015.6 |
| 20260506011554 | 56 | 320 | 5.0 | 13.0 | 0.00 | 0.21 | 0.21 | 64 | 1015.4 |
| 20260506010051 | 55 | 316 | 5.0 | 15.0 | 0.00 | 0.21 | 0.21 | 65 | 1015.1 |
| 20260506004558 | 55 | 300 | 5.0 | 15.0 | 0.00 | 0.21 | 0.21 | 64 | 1015.2 |
| 20260506003050 | 54 | 293 | 10.0 | 19.0 | 0.00 | 0.21 | 0.21 | 65 | 1015.2 |
| 20260506001609 | 55 | 319 | 9.0 | 19.0 | 0.00 | 0.21 | 0.21 | 63 | 1015.2 |
| 20260506000051 | 56 | 340 | 5.0 | 16.0 | 0.00 | 0.21 | 0.21 | 61 | 1015.1 |
| 20260505234554 | 57 | 278 | 7.0 | 15.0 | 0.00 | 0.21 | 0.21 | 61 | 1015.0 |
| 20260505233057 | 57 | 219 | 5.0 | 15.0 | 0.00 | 0.21 | 0.21 | 60 | 1014.9 |
| 20260505231555 | 56 | 274 | 8.0 | 17.0 | 0.00 | 0.21 | 0.21 | 61 | 1015.1 |
| 20260505224550 | 57 | 317 | 7.0 | 14.0 | 0.00 | 0.21 | 0.21 | 61 | 1015.3 |
| 20260505223058 | 57 | 267 | 4.0 | 12.0 | 0.00 | 0.21 | 0.21 | 63 | 1015.2 |